sat.trackr.live / text

‹ back to catalog

STARLINK-37298

NORAD 68670 · 2026-077J

PAYLOAD ACTIVE UNKNOWN

§ Identity

Operator
Country
US
Launch date
2026-04-11
Launch site
AFWTR
Launch vehicle
Mass (kg)
RCS (m²)

Purposes: comms

External: N2YO · Heavens-Above · Gunter

§ Orbital elements

Epoch: 2026-05-25T03:29:01.427424Z

Period
93.91 min
Inclination
97.2867°
Eccentricity
0.0002184
Mean motion
15.33447740 rev/d
Perigee alt
464.0 km
Apogee alt
467.0 km
Semi-major
6,843.7 km
B*
4.7944e-4
RAAN
16.7007°
Arg perigee
86.0088°
Mean anomaly
274.1404°
Rev number
687

§ Raw data

STARLINK-372981 68670U 26077J   26145.14515541  .00015437  00000+0  47944-3 0  99932 68670  97.2867  16.7007 0002184  86.0088 274.1404 15.33447740  6875

JSON: /api/v1/satellites/68670 · /tle

For live sub-satellite position, see the globe view (requires WebGL).

§ Visibility from observer

Set your observer location to see the next 7 days of passes ≥ 10°. The values pass through the URL so the page stays shareable.

No JS? Fill the form by hand. The geolocation button needs JavaScript.